GW5236 Weather Reports


Display with metric or nautical units.
time (UTC)temp
F
wind
direction
speed
MPH
gust
MPH
rain 1hr
in
rain 24hr
in
rain mn
in
humidity
%
barometer
mb
20260508111011 45 177 0.0 3.0 0.00 0.00 0.00 75 1013.1
20260508110509 44 194 1.0 3.0 0.00 0.00 0.00 75 1013.1
20260508110010 44 209 0.0 2.0 0.00 0.00 0.00 76 1013.1
20260508105505 44 189 0.0 2.0 0.00 0.00 0.00 76 1013.1
20260508105005 44 193 0.0 2.0 0.00 0.00 0.00 76 1013.1
20260508104514 43 193 0.0 2.0 0.00 0.00 0.00 76 1013.1
20260508104001 43 169 1.0 2.0 0.00 0.00 0.00 76 1013.2
20260508103501 43 207 0.0 2.0 0.00 0.00 0.00 76 1013.3
20260508103001 43 207 1.0 2.0 0.00 0.00 0.00 76 1013.2
20260508102501 43 209 0.0 2.0 0.00 0.00 0.00 76 1013.0
20260508102001 43 247 0.0 2.0 0.00 0.00 0.00 76 1013.1
20260508101516 43 171 0.0 2.0 0.00 0.00 0.00 77 1013.0
20260508101001 42 165 1.0 2.0 0.00 0.00 0.00 77 1013.0
20260508100501 42 132 0.0 2.0 0.00 0.00 0.00 78 1013.0
20260508100015 42 132 0.0 2.0 0.00 0.00 0.00 79 1013.0
20260508095509 42 132 0.0 2.0 0.00 0.00 0.00 80 1012.9
20260508095005 42 132 0.0 2.0 0.00 0.00 0.00 80 1012.9
20260508094517 42 132 0.0 2.0 0.00 0.00 0.00 81 1013.0
20260508094008 42 132 0.0 2.0 0.00 0.00 0.00 80 1013.0
20260508093505 42 132 0.0 2.0 0.00 0.00 0.00 80 1012.9
20260508093005 42 132 0.0 2.0 0.00 0.00 0.00 81 1012.9
20260508092501 42 132 0.0 2.0 0.00 0.00 0.00 80 1012.9
20260508092002 42 132 0.0 2.0 0.00 0.00 0.00 80 1013.0
20260508091513 42 132 0.0 2.0 0.00 0.00 0.00 79 1012.9
20260508091004 42 132 0.0 2.0 0.00 0.00 0.00 79 1013.0
20260508090502 42 132 0.0 2.0 0.00 0.00 0.00 80 1013.0
20260508090010 41 132 0.0 2.0 0.00 0.00 0.00 81 1013.0
20260508085005 42 132 0.0 0.0 0.00 0.00 0.00 82 1013.1
20260508084509 42 132 0.0 0.0 0.00 0.00 0.00 81 1013.1
20260508084006 43 132 0.0 1.0 0.00 0.00 0.00 80 1013.1
20260508083015 43 132 0.0 2.0 0.00 0.00 0.00 79 1013.0
20260508082510 43 132 0.0 2.0 0.00 0.00 0.00 80 1013.0
20260508082002 43 132 0.0 2.0 0.00 0.00 0.00 79 1013.0
20260508081509 44 132 0.0 2.0 0.00 0.00 0.00 78 1012.9
20260508081004 43 132 0.0 2.0 0.00 0.00 0.00 78 1013.0
20260508080504 43 132 0.0 2.0 0.00 0.00 0.00 79 1013.0
20260508080007 43 132 0.0 2.0 0.00 0.00 0.00 80 1013.0
20260508075504 43 132 0.0 2.0 0.00 0.00 0.00 81 1013.0
20260508075004 43 132 0.0 2.0 0.00 0.00 0.00 82 1013.1
20260508074514 43 132 0.0 2.0 0.00 0.00 0.00 82 1013.1
20260508074003 43 132 0.0 2.0 0.00 0.00 0.00 82 1013.0
20260508073505 43 132 0.0 2.0 0.00 0.00 0.00 82 1013.0
20260508073014 43 132 0.0 2.0 0.00 0.00 0.00 84 1013.0
20260508072505 43 132 0.0 1.0 0.00 0.00 0.00 87 1013.0
20260508072008 43 132 0.0 1.0 0.00 0.00 0.00 87 1013.1
20260508071519 43 132 0.0 2.0 0.00 0.00 0.00 87 1013.1
20260508070503 44 132 0.0 0.0 0.00 0.00 0.00 85 1013.2
20260508070005 44 132 0.0 2.0 0.00 0.00 0.00 85 1013.3
20260508065502 44 132 0.0 2.0 0.00 0.00 0.00 83 1013.3
20260508065004 44 132 0.0 2.0 0.00 0.00 0.00 84 1013.4
20260508064508 45 132 0.0 2.0 0.00 0.00 0.00 85 1013.4
20260508063505 46 132 0.0 2.0 0.00 0.00 0.00 84 1013.3
20260508063015 46 240 0.0 2.0 0.00 0.00 0.00 83 1013.4
20260508062504 46 240 0.0 2.0 0.00 0.00 0.00 82 1013.4
20260508062006 47 126 1.0 2.0 0.00 0.00 0.00 82 1013.4
20260508061517 47 126 0.0 2.0 0.00 0.00 0.00 81 1013.5
20260508061007 47 126 0.0 3.0 0.00 0.00 0.00 81 1013.6
20260508060510 47 126 2.0 3.0 0.00 0.00 0.00 78 1013.7
20260508060021 47 60 1.0 3.0 0.00 0.00 0.00 77 1013.8
20260508055508 47 278 0.0 3.0 0.00 0.00 0.00 75 1014.2
20260508055003 47 349 0.0 3.0 0.00 0.00 0.00 77 1014.1
20260508054508 47 342 0.0 2.0 0.00 0.00 0.00 77 1014.4
20260508054005 47 342 0.0 2.0 0.00 0.00 0.00 78 1014.3
20260508053504 47 342 0.0 2.0 0.00 0.00 0.00 78 1014.2
20260508053010 47 342 1.0 2.0 0.00 0.00 0.00 79 1014.1
20260508052505 47 276 0.0 2.0 0.00 0.00 0.00 75 1014.1
20260508051511 47 159 0.0 2.0 0.00 0.00 0.00 73 1013.7
20260508050508 47 159 0.0 2.0 0.00 0.00 0.00 75 1013.6
20260508050032 47 159 0.0 0.0 0.00 0.00 0.00 75 1013.5
20260508045507 47 159 0.0 2.0 0.00 0.00 0.00 74 1013.5
20260508045007 47 159 0.0 2.0 0.00 0.00 0.00 74 1013.5
20260508044521 47 159 0.0 2.0 0.00 0.00 0.00 72 1013.6
20260508043504 47 159 0.0 2.0 0.00 0.00 0.00 72 1013.6
20260508043010 46 159 0.0 2.0 0.00 0.00 0.00 74 1013.7
20260508042504 46 159 0.0 2.0 0.00 0.00 0.00 78 1013.7
20260508042008 46 159 0.0 2.0 0.00 0.00 0.00 78 1013.6
20260508041512 46 159 0.0 2.0 0.00 0.00 0.00 79 1013.6
20260508041004 46 159 0.0 1.0 0.00 0.00 0.00 79 1013.7
20260508040507 46 159 0.0 2.0 0.00 0.00 0.00 79 1013.8
20260508040021 46 159 0.0 2.0 0.00 0.00 0.00 80 1013.8
20260508035506 46 159 0.0 2.0 0.00 0.00 0.00 81 1013.7
20260508035009 46 159 0.0 0.0 0.00 0.00 0.00 79 1013.9
20260508034522 46 159 0.0 0.0 0.00 0.00 0.00 79 1013.9
20260508034008 46 159 0.0 0.0 0.00 0.00 0.00 77 1014.0
20260508033510 46 159 0.0 0.0 0.00 0.00 0.00 77 1013.8
20260508033022 46 159 0.0 0.0 0.00 0.00 0.00 76 1013.9
20260508032505 46 159 0.0 0.0 0.00 0.00 0.00 76 1013.8
20260508032004 47 159 0.0 0.0 0.00 0.00 0.00 75 1013.8
20260508031512 47 159 0.0 0.0 0.00 0.00 0.00 74 1013.7
20260508031004 47 159 0.0 2.0 0.00 0.00 0.00 76 1013.8
20260508030507 47 159 0.0 2.0 0.00 0.00 0.00 76 1013.8
20260508030016 47 159 0.0 2.0 0.00 0.00 0.00 76 1013.8
20260508025006 47 159 0.0 2.0 0.00 0.00 0.00 76 1014.1
20260508024520 47 159 0.0 2.0 0.00 0.00 0.00 76 1014.1
20260508024008 47 159 0.0 2.0 0.00 0.00 0.00 75 1013.9
20260508023509 47 159 0.0 1.0 0.00 0.00 0.00 73 1013.8
20260508023021 47 159 0.0 2.0 0.00 0.00 0.00 71 1013.9
20260508022011 47 159 0.0 2.0 0.00 0.00 0.00 70 1013.8
20260508021528 47 159 0.0 0.0 0.00 0.00 0.00 68 1013.8
20260508021004 48 159 0.0 2.0 0.00 0.00 0.00 68 1013.8
20260508020505 49 159 0.0 2.0 0.00 0.00 0.00 66 1013.7
20260508020019 49 159 0.0 0.0 0.00 0.00 0.00 65 1013.7
20260508015505 50 159 0.0 2.0 0.00 0.00 0.00 65 1013.6
20260508015005 51 159 0.0 2.0 0.00 0.00 0.00 62 1013.6
20260508014520 51 159 0.0 2.0 0.00 0.00 0.00 59 1013.6
20260508014007 51 159 0.0 2.0 0.00 0.00 0.00 60 1013.5
20260508013505 51 159 1.0 2.0 0.00 0.00 0.00 55 1013.8
20260508013026 51 251 0.0 4.0 0.00 0.00 0.00 57 1013.7
20260508012512 51 228 0.0 5.0 0.00 0.00 0.00 56 1013.7
20260508012010 50 259 2.0 5.0 0.00 0.00 0.00 58 1013.6
20260508011526 49 279 2.0 4.0 0.00 0.00 0.00 66 1013.6
20260508011008 49 234 0.0 1.0 0.00 0.00 0.00 66 1013.6
20260508010509 49 234 0.0 0.0 0.00 0.00 0.00 66 1013.6
20260508010027 50 234 0.0 2.0 0.00 0.00 0.00 64 1013.5
20260508005507 50 234 0.0 2.0 0.00 0.00 0.00 61 1013.5
20260508005007 51 234 0.0 0.0 0.00 0.00 0.00 64 1013.6
20260508004516 51 234 0.0 0.0 0.00 0.00 0.00 59 1013.4
20260508004005 51 234 0.0 0.0 0.00 0.00 0.00 58 1013.4
20260508003505 52 234 0.0 0.0 0.00 0.00 0.00 56 1013.4
20260508003024 52 234 0.0 0.0 0.00 0.00 0.00 55 1013.4
20260508002505 52 234 0.0 0.0 0.00 0.00 0.00 53 1013.3
20260508002011 52 234 0.0 0.0 0.00 0.00 0.00 52 1013.3
20260508001538 53 234 0.0 0.0 0.00 0.00 0.00 52 1013.3
20260508001008 53 234 0.0 2.0 0.00 0.00 0.00 50 1013.3
20260508000511 53 234 0.0 2.0 0.00 0.00 0.00 49 1013.3
20260508000025 54 234 0.0 3.0 0.00 0.00 0.00 48 1013.2
20260507235509 54 211 0.0 4.0 0.00 0.00 0.00 47 1013.2
20260507235010 54 207 1.0 4.0 0.00 0.00 0.00 46 1013.1
20260507234511 55 248 0.0 4.0 0.00 0.00 0.00 46 1013.1
20260507234051 55 278 1.0 7.0 0.00 0.00 0.00 45 1013.1
20260507233507 55 265 1.0 7.0 0.00 0.00 0.00 43 1013.1
20260507233019 55 297 1.0 5.0 0.00 0.00 0.00 44 1013.1
20260507232509 56 296 1.0 6.0 0.00 0.00 0.00 43 1013.0
20260507232007 56 175 1.0 7.0 0.00 0.00 0.00 42 1013.1
20260507231529 57 266 3.0 7.0 0.00 0.00 0.00 42 1013.1
20260507231007 57 270 1.0 5.0 0.00 0.00 0.00 42 1013.1
20260507230509 57 266 1.0 3.0 0.00 0.00 0.00 42 1013.0
20260507230027 57 328 1.0 4.0 0.00 0.00 0.00 43 1013.1
20260507225510 57 263 1.0 8.0 0.00 0.00 0.00 43 1013.2
20260507225010 57 259 3.0 8.0 0.00 0.00 0.00 40 1013.2
20260507224537 58 250 3.0 7.0 0.00 0.00 0.00 40 1013.3
20260507224011 58 298 1.0 7.0 0.00 0.00 0.00 44 1013.2
20260507223515 58 231 2.0 8.0 0.00 0.00 0.00 43 1013.4
20260507223016 57 279 2.0 8.0 0.00 0.00 0.00 41 1013.4
20260507222507 58 313 2.0 7.0 0.00 0.00 0.00 43 1013.4
20260507222008 58 256 2.0 9.0 0.00 0.00 0.00 40 1013.4
20260507221522 58 269 2.0 10.0 0.00 0.00 0.00 42 1013.4
20260507221009 58 293 5.0 10.0 0.00 0.00 0.00 40 1013.4
20260507220506 58 286 2.0 6.0 0.00 0.00 0.00 41 1013.4
20260507220036 57 185 1.0 9.0 0.00 0.00 0.00 42 1013.4
20260507215010 55 243 3.0 9.0 0.00 0.00 0.00 42 1013.5
20260507214535 55 282 2.0 10.0 0.00 0.00 0.00 43 1013.3
20260507214008 55 294 4.0 10.0 0.00 0.00 0.00 41 1013.2
20260507213512 55 257 4.0 10.0 0.00 0.00 0.00 41 1013.2
20260507213027 56 261 4.0 10.0 0.00 0.00 0.00 40 1013.2
20260507212511 56 260 2.0 9.0 0.00 0.00 0.00 44 1013.3
20260507212007 56 313 3.0 8.0 0.00 0.00 0.00 42 1013.3
20260507211518 56 279 2.0 11.0 0.00 0.00 0.00 42 1013.3
20260507211008 57 269 3.0 11.0 0.00 0.00 0.00 42 1013.1
20260507210507 58 283 5.0 12.0 0.00 0.00 0.00 42 1013.1
20260507210020 58 5 3.0 12.0 0.00 0.00 0.00 42 1013.1
20260507205508 57 176 4.0 9.0 0.00 0.00 0.00 41 1013.1
20260507205009 57 314 5.0 9.0 0.00 0.00 0.00 43 1013.2
20260507204524 56 234 2.0 10.0 0.00 0.00 0.00 42 1013.2
20260507204013 58 15 5.0 10.0 0.00 0.00 0.00 40 1013.2
20260507203510 58 301 5.0 9.0 0.00 0.00 0.00 45 1013.1
20260507203032 58 352 3.0 10.0 0.00 0.00 0.00 48 1013.0
20260507202509 57 319 3.0 11.0 0.00 0.00 0.00 40 1013.0
20260507202013 57 288 5.0 11.0 0.00 0.00 0.00 42 1013.1
20260507201527 58 222 3.0 10.0 0.00 0.00 0.00 48 1013.1
20260507201008 57 59 3.0 12.0 0.00 0.00 0.00 44 1013.1
20260507200508 57 5 4.0 15.0 0.00 0.00 0.00 45 1013.2
20260507200020 56 248 7.0 15.0 0.00 0.00 0.00 42 1013.4
20260507195506 57 271 2.0 11.0 0.00 0.00 0.00 43 1013.3
20260507195011 57 351 2.0 12.0 0.00 0.00 0.00 46 1013.2
20260507194505 57 286 5.0 12.0 0.00 0.00 0.00 44 1013.3
20260507194005 56 252 5.0 8.0 0.00 0.00 0.00 46 1013.2
20260507193504 55 257 2.0 11.0 0.00 0.00 0.00 46 1013.3
20260507193013 56 268 3.0 13.0 0.00 0.00 0.00 47 1013.4
20260507192504 56 259 3.0 13.0 0.00 0.00 0.00 49 1013.4
20260507192004 55 332 2.0 12.0 0.00 0.00 0.00 50 1013.4
20260507191514 56 225 3.0 13.0 0.00 0.00 0.00 47 1013.4
20260507191009 56 306 4.0 15.0 0.00 0.00 0.00 49 1013.3
20260507190505 56 278 6.0 15.0 0.00 0.00 0.00 45 1013.5
20260507190020 56 313 3.0 9.0 0.00 0.00 0.00 45 1013.6
20260507185511 56 275 4.0 12.0 0.00 0.00 0.00 47 1013.6
20260507185009 56 282 5.0 12.0 0.00 0.00 0.00 48 1013.6
20260507184523 56 257 5.0 9.0 0.00 0.00 0.00 45 1013.6
20260507184003 56 290 3.0 9.0 0.00 0.00 0.00 45 1013.6
20260507183504 56 236 3.0 9.0 0.00 0.00 0.00 56 1013.6
20260507183008 55 236 3.0 11.0 0.00 0.00 0.00 47 1013.6
20260507182505 55 255 7.0 11.0 0.00 0.00 0.00 49 1013.7
20260507182005 56 300 4.0 10.0 0.00 0.00 0.00 49 1013.7
20260507181512 55 295 4.0 12.0 0.00 0.00 0.00 49 1013.7
20260507181004 55 269 5.0 12.0 0.00 0.00 0.00 51 1013.8
20260507180511 55 232 5.0 12.0 0.00 0.00 0.00 49 1013.7
20260507180016 55 297 5.0 12.0 0.00 0.00 0.00 48 1013.8
20260507175508 55 282 5.0 11.0 0.00 0.00 0.00 47 1013.9
20260507175011 56 286 5.0 11.0 0.00 0.00 0.00 50 1013.7
20260507174532 55 277 4.0 12.0 0.00 0.00 0.00 46 1013.9
20260507174008 55 226 5.0 12.0 0.00 0.00 0.00 49 1014.0
20260507173512 55 248 2.0 11.0 0.00 0.00 0.00 54 1014.0
20260507173005 55 273 5.0 11.0 0.00 0.00 0.00 52 1014.0
20260507172506 54 225 3.0 11.0 0.00 0.00 0.00 52 1014.0
20260507172005 54 270 5.0 12.0 0.00 0.00 0.00 53 1014.1
20260507171515 54 288 6.0 12.0 0.00 0.00 0.00 52 1014.1
20260507171005 54 284 5.0 11.0 0.00 0.00 0.00 54 1014.1
20260507170507 54 240 4.0 11.0 0.00 0.00 0.00 53 1014.2
20260507170023 54 284 4.0 14.0 0.00 0.00 0.00 55 1014.2
20260507165506 53 302 4.0 14.0 0.00 0.00 0.00 58 1014.3
20260507165004 53 240 5.0 12.0 0.00 0.00 0.00 52 1014.3
20260507164520 53 290 4.0 12.0 0.00 0.00 0.00 53 1014.4
20260507164010 53 254 5.0 10.0 0.00 0.00 0.00 54 1014.4
20260507163509 53 308 3.0 16.0 0.00 0.00 0.00 55 1014.5
20260507163023 53 272 7.0 16.0 0.00 0.00 0.00 53 1014.5
20260507162509 53 265 3.0 10.0 0.00 0.00 0.00 59 1014.4
20260507162012 53 252 6.0 9.0 0.00 0.00 0.00 52 1014.5
20260507161526 53 281 5.0 10.0 0.00 0.00 0.00 54 1014.4
20260507160509 53 279 4.0 11.0 0.00 0.00 0.00 55 1014.3
20260507160032 52 288 6.0 11.0 0.00 0.00 0.00 51 1014.3
20260507155006 52 295 5.0 10.0 0.00 0.00 0.00 51 1014.3
20260507154518 52 207 5.0 11.0 0.00 0.00 0.00 52 1014.2
20260507154010 52 294 5.0 11.0 0.00 0.00 0.00 54 1014.2
20260507153507 52 286 4.0 10.0 0.00 0.00 0.00 54 1014.2
20260507153022 52 279 3.0 13.0 0.00 0.00 0.00 53 1014.2
20260507152511 52 252 5.0 12.0 0.00 0.00 0.00 57 1014.1
20260507152015 52 281 4.0 10.0 0.00 0.00 0.00 55 1014.1
20260507151524 52 198 3.0 11.0 0.00 0.00 0.00 55 1014.1
20260507151012 52 254 5.0 11.0 0.00 0.00 0.00 56 1014.1
20260507150032 51 275 4.0 10.0 0.00 0.00 0.00 54 1014.0
20260507145509 51 282 3.0 10.0 0.00 0.00 0.00 54 1014.2
20260507145008 51 227 5.0 9.0 0.00 0.00 0.00 54 1014.2
20260507144528 51 297 4.0 11.0 0.00 0.00 0.00 57 1014.2
20260507144009 50 263 5.0 11.0 0.00 0.00 0.00 54 1014.1
20260507143508 50 238 5.0 10.0 0.00 0.00 0.00 55 1014.3
20260507143026 50 268 4.0 10.0 0.00 0.00 0.00 54 1014.2
20260507142509 50 298 3.0 10.0 0.00 0.00 0.00 53 1014.2
20260507142009 50 281 5.0 9.0 0.00 0.00 0.00 54 1014.2
20260507141526 50 269 4.0 10.0 0.00 0.00 0.00 53 1014.3
20260507141010 50 272 3.0 10.0 0.00 0.00 0.00 55 1014.3
20260507140513 50 253 4.0 10.0 0.00 0.00 0.00 56 1014.3
20260507140027 49 281 4.0 12.0 0.00 0.00 0.00 56 1014.4
20260507135514 49 290 5.0 12.0 0.00 0.00 0.00 55 1014.5
20260507135012 48 287 2.0 8.0 0.00 0.00 0.00 60 1014.4
20260507134513 48 280 3.0 7.0 0.00 0.00 0.00 60 1014.5
20260507134010 48 290 2.0 7.0 0.00 0.00 0.00 60 1014.5
20260507133503 48 286 4.0 10.0 0.00 0.00 0.00 59 1014.4
20260507133003 48 350 3.0 10.0 0.00 0.00 0.00 61 1014.4
20260507132502 48 270 3.0 9.0 0.00 0.00 0.00 62 1014.4
20260507132004 48 243 3.0 9.0 0.00 0.00 0.00 62 1014.5
20260507131510 47 287 3.0 6.0 0.00 0.00 0.00 64 1014.5
20260507131004 47 267 2.0 7.0 0.00 0.00 0.00 64 1014.6
20260507130010 46 257 1.0 9.0 0.00 0.00 0.00 66 1014.5
20260507125505 46 210 5.0 9.0 0.00 0.00 0.00 64 1014.6
20260507125007 47 274 4.0 9.0 0.00 0.00 0.00 67 1014.4
20260507124512 46 286 4.0 9.0 0.00 0.00 0.00 68 1014.4
20260507124007 46 290 3.0 8.0 0.00 0.00 0.00 71 1014.4
20260507123508 45 290 2.0 7.0 0.00 0.00 0.00 72 1014.5
20260507123016 45 264 3.0 7.0 0.00 0.00 0.00 73 1014.4
20260507122504 44 264 2.0 8.0 0.00 0.00 0.00 74 1014.4
20260507122004 44 281 2.0 8.0 0.00 0.00 0.00 75 1014.5
20260507121503 43 274 2.0 6.0 0.00 0.00 0.00 77 1014.5
20260507121005 43 294 2.0 6.0 0.00 0.00 0.00 77 1014.4
20260507120503 42 269 2.0 5.0 0.00 0.00 0.00 80 1014.4
20260507120022 42 275 2.0 4.0 0.00 0.00 0.00 82 1014.4
20260507115505 41 277 2.0 4.0 0.00 0.00 0.00 84 1014.3
20260507115004 40 261 2.0 4.0 0.00 0.00 0.00 88 1014.3
20260507114511 39 232 1.0 3.0 0.00 0.00 0.00 91 1014.3
20260507114007 38 272 1.0 2.0 0.00 0.00 0.00 94 1014.3
20260507113507 37 239 1.0 2.0 0.00 0.00 0.00 96 1014.3
20260507113024 37 259 0.0 2.0 0.00 0.00 0.00 97 1014.3
20260507112510 37 262 1.0 2.0 0.00 0.00 0.00 97 1014.3
20260507112008 36 253 0.0 2.0 0.00 0.00 0.00 97 1014.3
20260507111521 35 248 0.0 2.0 0.00 0.00 0.00 97 1014.3